Location: Newark
(43.0000°N, 1.6781°W)
Time: 23:26:46
(UTC+00:00)

deb Explorer IX - Pass Details

Date: 24 April 2021
Orbit: 541 x 1098 km, 38.8° (Epoch: 12 May)

Event Time Altitude Azimuth Distance (km) Brightness Sun altitude
Rises 09:36:09 0° 271° (W) 2,824 ? 46.2°
Reaches altitude 10° 09:38:31 10° 260° (W) 1,984 ? 46.5°
Maximum altitude 09:42:32 30° 199° (SSW) 1,195 ? 47.1°
Drops below altitude 10° 09:47:05 10° 139° (SE) 2,261 ? 47.8°
Sets 09:49:58 0° 129° (SE) 3,292 ? 48.3°
